This demonstration page uses our WeatherBlox Daily Observations layout. Learn more.

Hourly Observations for July 14, 2017

Temp ( °F °C ) Dew Point ( °F °C ) Humidity (%) Winds ( mph kmh ) Pressure ( in mb ) Visibility ( mi km ) Precip ( " mm )
12:06 am 00:06 Cloudy 75 23.9 73 22.8 94 94 WSW 5 7 30.06 1018 10 16.0934 0 0
12:37 am 00:37 Cloudy 76 24.4 73 22.8 91 91 Calm 30.06 1018 8 12.87472 0 0
12:53 am 00:53 Cloudy 75 23.9 74 23.3 96 96 Calm 30.04 1017 7 11.26538 0 0
1:08 am 01:08 Cloudy with Mist and Fog 75 23.9 75 23.9 100 100 Calm 30.06 1018 6 9.65604 0 0
1:21 am 01:21 Cloudy with Mist and Fog 76 24.4 75 23.9 97 97 Calm 30.06 1018 6 9.65604 0 0
1:43 am 01:43 Cloudy with Mist and Fog 76 24.4 75 23.9 97 97 Calm 30.06 1018 5 8.0467 0 0
1:53 am 01:53 Cloudy with Mist and Fog 75 23.9 75 23.9 100 100 Calm 30.05 1018 5 8.0467 0 0
2:53 am 02:53 Cloudy with Mist and Fog 75 23.9 75 23.9 100 100 Calm 30.04 1017 5 8.0467 0 0
3:29 am 03:29 Cloudy with Nearby Thunderstorms 75 23.9 75 23.9 100 100 Calm 30.06 1018 5 8.0467 0 0.0254
3:46 am 03:46 Cloudy with Nearby Thunderstorms 76 24.4 75 23.9 97 97 SW 5 7 30.06 1018 6 9.65604 0 0.0254
3:53 am 03:53 Cloudy with Nearby Thunderstorms 76 24.4 74 23.3 94 94 W 5 7 30.04 1017 6 9.65604 0 0.0254
4:04 am 04:04 Cloudy with Light Rain 76 24.4 74 23.3 94 94 Calm 30.06 1018 4 6.43736 0.01 0.254
4:53 am 04:53 Cloudy with Light Rain 75 23.9 75 23.9 100 100 Calm 30.05 1018 5 8.0467 0.02 0.508
5:53 am 05:53 Cloudy with Mist and Fog 74 23.3 74 23.3 100 100 WSW 5 7 30.06 1018 6 9.65604 0 0.0254
6:04 am 06:04 Cloudy with Light Rain 74 23.3 74 23.3 100 100 W 5 7 30.06 1018 2.5 4.02335 0.07 1.778
6:06 am 06:06 Cloudy with Heavy Rain 74 23.3 74 23.3 100 100 VRB 3 6 30.06 1018 1.25 2.011675 0.17 4.318
6:14 am 06:14 Cloudy with Heavy Rain 74 23.3 74 23.3 100 100 Calm 30.06 1018 0.75 1.207005 0.3 7.62
6:18 am 06:18 Cloudy with Light Rain 74 23.3 74 23.3 100 100 Calm 30.06 1018 1.5 2.41401 0.31 7.874
6:20 am 06:20 Cloudy with Rain 74 23.3 74 23.3 100 100 Calm 30.06 1018 2 3.21868 0.31 7.874
6:28 am 06:28 Cloudy with Light Rain 74 23.3 74 23.3 100 100 Calm 30.06 1018 4 6.43736 0.31 7.874
6:44 am 06:44 Cloudy with Mist and Fog 74 23.3 74 23.3 100 100 Calm 30.06 1018 2.5 4.02335 0.31 7.874
6:53 am 06:53 Cloudy with Light Rain 74 23.3 74 23.3 100 100 Calm 30.05 1018 4 6.43736 0.31 7.874
7:46 am 07:46 Cloudy with Mist and Fog 75 23.9 74 23.3 96 96 WSW 3 6 30.06 1018 4 6.43736 0 0.0254
7:53 am 07:53 Cloudy with Mist and Fog 75 23.9 74 23.3 96 96 W 5 7 30.07 1018 5 8.0467 0 0.0254
8:41 am 08:41 Mostly Cloudy with Mist and Fog 75 23.9 74 23.3 96 96 W 6 9 30.06 1018 6 9.65604 0 0
8:53 am 08:53 Mostly Cloudy with Mist and Fog 75 23.9 74 23.3 96 96 WSW 6 9 30.08 1019 6 9.65604 0 0
9:22 am 09:22 Mostly Cloudy 76 24.4 74 23.3 94 94 WNW 3 6 30.06 1018 7 11.26538 0 0
9:41 am 09:41 Mostly Cloudy 76 24.4 75 23.9 97 97 W 5 7 30.06 1018 7 11.26538 0 0
9:53 am 09:53 Cloudy 76 24.4 75 23.9 97 97 VRB 5 7 30.09 1019 7 11.26538 0 0
10:07 am 10:07 Cloudy 77 25 75 23.9 94 94 WSW 6 9 30.06 1018 7 11.26538 0 0
10:16 am 10:16 Cloudy 78 25.6 75 23.9 90 90 WSW 6 9 30.06 1018 7 11.26538 0 0
10:42 am 10:42 Partly Cloudy 78 25.6 74 23.3 87 87 SW 8 13 30.06 1018 8 12.87472 0 0
10:53 am 10:53 Partly Cloudy 79 26.1 75 23.9 88 88 WSW 7 11 30.08 1019 8 12.87472 0 0
11:53 am 11:53 Partly Cloudy 82 27.8 75 23.9 79 79 WSW 6 9 30.08 1019 8 12.87472 0 0
12:53 pm 12:53 Mostly Cloudy 83 28.3 73 22.8 72 72 VRB 6 9 30.07 1018 8 12.87472 0 0
1:53 pm 13:53 Partly Cloudy 85 29.4 73 22.8 68 68 WSW 9 15 30.05 1018 8 12.87472 0 0
2:53 pm 14:53 Mostly Cloudy 86 30 72 22.2 63 63 WNW 12 19 30.03 1017 8 12.87472 0 0
3:53 pm 15:53 Mostly Sunny 87 30.6 71 21.7 59 59 W 9 15 30.03 1017 9 14.48406 0 0
4:53 pm 16:53 Partly Cloudy 86 30 70 21.1 59 59 WNW 13 20 30.03 1017 9 14.48406 0 0
5:53 pm 17:53 Sunny 84 28.9 67 19.4 57 57 WNW 15 24 30.04 1017 10 16.0934 0 0
6:53 pm 18:53 Sunny 83 28.3 68 20 61 61 W 10 17 30.03 1017 10 16.0934 0 0
7:53 pm 19:53 Sunny 81 27.2 68 20 65 65 W 7 11 30.03 1017 10 16.0934 0 0
8:53 pm 20:53 Sunny 78 25.6 68 20 71 71 W 5 7 30.03 1017 10 16.0934 0 0
9:53 pm 21:53 Clear 76 24.4 68 20 77 77 W 6 9 30.05 1018 9 14.48406 0 0
10:53 pm 22:53 Clear 74 23.3 66 18.9 76 76 N 7 11 30.08 1019 8 12.87472 0 0
11:53 pm 23:53 Clear 71 21.7 65 18.3 81 81 NNW 6 9 30.09 1019 8 12.87472 0 0

Powered by AerisWeather